Regional Weather Roundup
Issued by NWS Charleston, SC

Current Version | Previous Version | Text Only | Print | Product List | Glossary Off
Versions: 1 2 3 4 5 6 7 8 9 10 11 12 13 14 15 16 17 18 19 20 21 22 23 24 25 26 27 28 29 30 31 32 33 34 35 36 37 38 39 40 41 42 43 44 45 46 47 48 49 50

215
ASUS42 KCHS 220812
RWRCHS

REGIONAL WEATHER ROUNDUP
NATIONAL WEATHER SERVICE CHARLESTON SC
400 AM EDT FRI MAY 22 2015

NOTE: "FAIR" INDICATES FEW OR NO CLOUDS BELOW 12,000 FEET WITH NO
SIGNIFICANT WEATHER AND/OR OBSTRUCTIONS TO VISIBILITY.

NOT ALL STATIONS ARE QUALITY CONTROLLED BY THE NATIONAL
WEATHER SERVICE. USE DATA WITH CAUTION...ESPECIALLY
DEWPOINT OBSERVATIONS.

SCZ027-030-031-034>040-042>050-220900-
...SOUTHEAST SOUTH CAROLINA...

CITY           SKY/WX    TMP DP  RH WIND       PRES   REMARKS
N CHARLESTON   CLEAR     68  58  70 N3        29.96R
WATERFRONT PAR   N/A     74  61  63 VRB2      29.93R
MOUNT PLEASANT FAIR      70  61  73 N3        29.97R
JOHNS ISLAND   SUNNY     70  63  78 CALM      29.97R
PINOPOLIS        N/A     72  66  83 E16       29.90
MONCKS CORNER  FAIR      70  63  78 NE10      29.97R
SUMMERVILLE    FAIR      68  59  73 NW3       29.97R
BEAUFORT MCAS  CLEAR     71  59  65 NW9       29.98R
BEAUFORT ARPT  FAIR      72  61  68 NW9       29.97R
HILTON HEAD IS CLEAR     73  61  64 NW10G17   29.99R
WALTERBORO     MOSUNNY   66  55  68 NW8       29.97S
ALLENDALE      FAIR      68  55  64 NW6G12    29.99R

...SOUTHERN MIDLANDS AND PEE DEE...

CITY           SKY/WX    TMP DP  RH WIND       PRES   REMARKS
GEORGETOWN     NOT AVBL
KINGSTREE      NOT AVBL
ORANGEBURG     CLOUDY    70  57  63 N7        29.99R
BARNWELL       FAIR      66  55  68 W7        30.01S
AIKEN          FAIR      59  50  72 NW3       30.05R
MANNING        CLOUDY    66  54  63 NE7       30.00R
COLUMBIA       MOCLDY    69  47  45 N8        30.00R
SUMTER         CLOUDY    68  61  78 NE15      29.99R
FLORENCE       CLOUDY    66  58  75 NE13G20   30.01R
MYRTLE BEACH   CLOUDY    66  55  68 N17       30.01R
N MYRTLE BEACH CLOUDY    66  57  72 N10G20    29.99R

$$

GAZ063-065-086>088-099>101-113>116-118-119-134>141-150-220900-
...SOUTHEAST GEORGIA...

CITY           SKY/WX    TMP DP  RH WIND       PRES   REMARKS
SAVANNAH ARPT  CLEAR     71  58  63 NW9       29.99R
HUNTER AAF     CLEAR     72  60  67 NW13      29.96R
FORT STEWART   CLEAR     71  58  62 NW9       29.97R
STATESBORO     PTCLDY    65  58  76 NW12G18   30.01R
SYLVANIA       MOSUNNY   67  58  72 N9        30.01S
CLAXTON        FAIR      68  59  73 NW6       30.01R

...CSRA...CENTRAL AND FAR SOUTHEAST GEORGIA...

CITY           SKY/WX    TMP DP  RH WIND       PRES   REMARKS
THOMSON        CLOUDY    61  54  77 NW3       30.08S
AUGUSTA-BUSH   CLOUDY    63  51  65 NW7       30.02R
AUGUSTA-DANIEL CLOUDY    64  50  60 NW9       30.04R
SWAINSBORO     FAIR      64  54  68 NW6       30.04R
VIDALIA        PTCLDY    64  55  72 NW9       30.02R
EASTMAN        FAIR      62  56  79 CALM      30.07S
HAZLEHURST     FAIR      68  59  73 N7        30.01S
ALMA           PTCLDY    68  60  75 NW6       30.00S
WAYCROSS       CLEAR     69  63  82 N6        30.00S
JESUP          FAIR      72  64  78 NW5       30.00R
BAXLEY         FAIR      70  59  68 N8        30.00S
BRUNSWICK      CLEAR     72  61  68 W3        30.00R
SAINT SIMONS   NOT AVBL

$$

SCZ027-028-034-036>038-045-046-048>050-GAZ119-141-220900-
...LAKE AND SUPPLEMENTAL COASTAL OBSERVATIONS...

STATION/POSITION TIME  TEMP    WIND        PRES    WAVE   SWELL
                       AIR SEA DIR/SP/G            HT/PER HT/PER/DIR
                 (UTC) (F)     (DEG/KT/KT) (MB)    (FT/S) (FT/S/D)
UPR LAKE MARION  NOT AVBL
WINYAH BAY       NOT AVBL
LAKE MURRAY      0700   67     350/  3/ 10 1015.2S
ACE BASIN NERRS  NOT AVBL
FORT PULASKI     0700      79  310/ 11/ 13 1015.1R
SAPELO ISLAND    0700   74     280/  5     1015.0S

$$

ANZ835-935-AMZ111-154-330-350-352-354-370-450-454-472-220900-
...C-MAN AND BUOY OBSERVATIONS...

STATION/POSITION TIME  TEMP    WIND        PRES    WAVE   SWELL
                       AIR SEA DIR/SP/G            HT/PER HT/PER/DIR
                 (UTC) (F)     (DEG/KT/KT) (MB)    (FT/S) (FT/S/D)
BUOY 41004       0750   75 76   40/ 17/ 21 1013.0R   3/ 5   2/ 8
BUOY 41008       0750   77 77  330/ 16/ 19 1014.8R   2/ 3
FOLLY BEACH CMAN 0800   70     300/  5/  7 1014.8R
CAPERS NEARSHORE 0708   76     320/ 10/ 14 1013.9R
FRIPP NEARSHORE  0700   77     330/ 17/ 19 1013.9R


STATION/POSITION TIME  TEMP    WIND        PRES    WAVE   SWELL
                       AIR SEA DIR/SP/G            HT/PER HT/PER/DIR
                 (UTC) (F)     (DEG/KT/KT) (MB)    (FT/S) (FT/S/D)
5E ST. MARYS GA  0721      78                N/A     2/ 3
FRYING PAN BUOY  0750   71 75   20/ 17/ 21 1015.0R   4/ 6   2/170/ 7
BUOY 41025       0750   65 76  350/ 17/ 21 1014.0R   4/ 6   2/ 80/ 9
CAPE LOOKOUT NC  0800   62     340/ 11/ 15 1015.4R
BUOY 41002       0750   75 74  240/ 14/ 16 1014.0R   4/ 6   2/ 9
BUOY 41010       0720   80 79  220/ 14/ 16 1015.5F
ST AUGUSTINE FL  0800   74 73  310/  6/  9 1016.5R


$$



USA.gov is the U.S. government's official web portal to all federal, state and local government web resources and services.